Location: La Chapelle
(48.3135°N, 1.3085°W)
Time: 19:47:35
(UTC+00:00)

Cosmos 2360 Rocket - Pass Details

Date: 03 March 2021
Orbit: 832 x 846 km, 71.0° (Epoch: 14 April)

Event Time Altitude Azimuth Distance (km) Brightness Sun altitude
Rises 20:20:38 0° 229° (SW) 3,381 5.7 -25.1°
Reaches altitude 10° 20:23:12 10° 236° (SW) 2,453 5.0 -25.5°
Maximum altitude 20:28:31 42° 307° (NW) 1,186 3.3 -26.3°
Drops below altitude 10° 20:33:54 10° 18° (NNE) 2,475 4.7 -27.1°
Sets 20:36:30 0° 25° (NNE) 3,415 5.3 -27.5°
